126  
ASUS43 KTOP 282208  
RWRKS  
 
WEATHER ROUNDUP FOR KANSAS  
NATIONAL WEATHER SERVICE GOODLAND KS  
500 PM CDT SUN AUG 28 2016  
 
NOTE: "FAIR" INDICATES FEW OR NO CLOUDS BELOW 12,000 FEET WITH NO  
SIGNIFICANT WEATHER AND/OR S TO VISIBILITY
.  
 
KSZ001>006-013>018-027>032-041>047-282300-  
NORTHWEST KANSAS  
 
CITY SKY/WX TMP DP RH WIND PRES REMARKS
 
GOODLAND SUNNY 84 58 40 SE14G21 30.08F  
HAYS SUNNY 88 59 37 S8 30.04F  
HILL CITY MOSUNNY 85 62 46 S8 30.05F  
RUSSELL SUNNY 86 67 52 SE8 30.03F  

 
 
KSZ061>065-074>080-084>089-282300-  
SOUTHWEST KANSAS  
 
CITY SKY/WX TMP DP RH WIND PRES REMARKS
 
DODGE CITY CLOUDY 81 66 60 SE22G30 30.08S  
ELKHART N/A N/A N/A N/A MISG N/A  
GARDEN CITY SUNNY 86 60 41 SE16G22 30.04F  
GREAT BEND CLOUDY 84 66 54 S12 30.04F  
LIBERAL SUNNY 86 61 42 S9 30.07S  
PRATT PTSUNNY 68 64 85 S8 30.07F  

 
 
KSZ066>073-081>083-090>101-282300-  
SOUTHEAST KANSAS  
 
CITY SKY/WX TMP DP RH WIND PRES REMARKS
 
CHANUTE MOSUNNY 89 71 55 VRB3 30.05F HX 95  
COFFEYVILLE SUNNY 89 73 59 NW9 30.03S HX 97  
HUTCHINSON CLOUDY 87 69 54 SE6 30.04F  
NEWTON SUNNY 84 73 69 SE10 30.06F  
PARSONS CLOUDY 89 71 55 NE6 30.05F HX 95  
WICHITA INTL PTSUNNY 84 71 65 S20 30.04S  
WICHITA JABRA SUNNY 85 69 58 SE14 30.05S  
WICHITA MCCONL CLOUDY 87 66 48 S14 30.05S  
WINFIELD PTSUNNY 78 69 73 SE8 30.07S  

 
 
KSZ007>012-019>026-033>040-048>060-102>105-282300-  
NORTHEAST KANSAS  
 
CITY SKY/WX TMP DP RH WIND PRES REMARKS
 
CONCORDIA SUNNY 87 67 51 S10 30.04S  
EMPORIA TSTM 74 69 85 SE41G49 30.10R VSB 1/2  
LAWRENCE MOSUNNY 89 72 56 SE10 30.06S HX 96  
MANHATTAN SUNNY 89 69 51 SE8 30.03F  
MARYSVILLE MOSUNNY 84 72 65 SE13G20 30.05R  
OLATHE IND MOSUNNY 88 70 55 SE10 30.08S  
OLATHE EXE MOSUNNY 87 70 56 S7 30.07F  
SALINA MOSUNNY 90 68 48 S10 30.03F  
TOPEKA BILLARD MOSUNNY 89 72 56 E8 30.05S HX 96  
TOPEKA FORBES MOSUNNY 89 72 56 SE8 30.06S HX 96  

 
 
 
CLICK HERE TO GO TO PREVIOUS BULLETINS.

The Nexlab KS Page Main Text Page